This is the latest recevied weather packets stored in our database for station/object KD4KKF. If no packets are shown the sender has not sent any weather packets the latest 1 day(s).
| Time | Temp. | Humidity | Pressure | Rain* | Wind** | Luminosity | Snow |
|---|---|---|---|---|---|---|---|
| 1778001375 | 23.89° C | 63% | 1012.9 hPa | 0 mm | 3.13 m/s, 148° | 531 W/m² | - |
| 1778001072 | 23.33° C | 64% | 1013.1 hPa | 0 mm | 1.34 m/s, 123° | 576 W/m² | - |
| 1778000769 | 23.89° C | 64% | 1012.8 hPa | 0 mm | 0.89 m/s, 109° | 717 W/m² | - |
| 1778000465 | 23.33° C | 63% | 1013 hPa | 0 mm | 2.24 m/s, 287° | 711 W/m² | - |
| 1778000160 | 23.33° C | 64% | 1013 hPa | 0 mm | 0 m/s | 552 W/m² | - |
| 1777999856 | 22.78° C | 65% | 1012.8 hPa | 0 mm | 1.34 m/s, 177° | 532 W/m² | - |
| 1777999552 | 22.78° C | 65% | 1013 hPa | 0 mm | 1.34 m/s, 313° | 547 W/m² | - |
| 1777999250 | 22.78° C | 66% | 1012.9 hPa | 0 mm | 1.34 m/s, 171° | 442 W/m² | - |
| 1777998943 | 22.78° C | 64% | 1012.9 hPa | 0 mm | 1.34 m/s, 154° | 414 W/m² | - |
| 1777998639 | 23.33° C | 62% | 1013.1 hPa | 0 mm | 1.34 m/s, 214° | 416 W/m² | - |
| 1777998332 | 23.33° C | 65% | 1013.4 hPa | 0 mm | 0.89 m/s, 166° | 625 W/m² | - |
| 1777998029 | 23.33° C | 61% | 1013.1 hPa | 0 mm | 0.89 m/s, 259° | 441 W/m² | - |
| 1777997726 | 23.33° C | 63% | 1012.9 hPa | 0 mm | 0.89 m/s, 239° | 691 W/m² | - |
| 1777997423 | 23.33° C | 64% | 1013 hPa | 0 mm | 0.89 m/s, 343° | 687 W/m² | - |
| 1777997121 | 23.33° C | 62% | 1013.1 hPa | 0 mm | 1.34 m/s, 274° | 816 W/m² | - |
| 1777996818 | 22.78° C | 64% | 1012.9 hPa | 0 mm | 0.89 m/s, 178° | 840 W/m² | - |
| 1777996513 | 23.33° C | 62% | 1012.9 hPa | 0 mm | 2.68 m/s, 166° | 799 W/m² | - |
| 1777996211 | 22.78° C | 64% | 1013.1 hPa | 0 mm | 1.79 m/s, 259° | 842 W/m² | - |
| 1777995907 | 22.78° C | 66% | 1013.1 hPa | 0 mm | 2.68 m/s, 280° | 837 W/m² | - |
| 1777995603 | 22.78° C | 64% | 1013.1 hPa | 0 mm | 1.79 m/s, 158° | 807 W/m² | - |
| 1777995301 | 22.22° C | 65% | 1013.1 hPa | 0 mm | 0.89 m/s, 283° | 815 W/m² | - |
| 1777994997 | 21.67° C | 69% | 1013.1 hPa | 0 mm | 1.79 m/s, 136° | 800 W/m² | - |
| 1777994694 | 21.67° C | 68% | 1013.2 hPa | 0 mm | 1.34 m/s, 328° | 821 W/m² | - |
| 1777994389 | 22.22° C | 69% | 1013.3 hPa | 0 mm | 0 m/s | 796 W/m² | - |
| 1777994080 | 22.22° C | 67% | 1013.4 hPa | 0 mm | 1.79 m/s, 1° | 790 W/m² | - |
* Rain latest hour (hover to see other rain measurements)
** Current wind speed in m/s (hover to see current wind gust speed)